When you browse on this site, cookies collect data to enhance your experience and personalize the content and advertising you see.
Visit our Privacy Policy to learn more. By continuing to use the site, you agree to this use of cookies and data.

Hourly Weather Boa Vista

Today, 18 September, Friday

Time Temperature Precipitation Wind Pressure Humidity
00:00 +27°C° 0 mm 2 mps 752 mmHg 86%
01:00 +26°C° 0 mm 1 mps 752 mmHg 87%
02:00 +26°C° 0 mm 1 mps 751 mmHg 86%
03:00 +26°C° 0 mm 1 mps 751 mmHg 86%
04:00 +26°C° 0 mm 1 mps 752 mmHg 87%
05:00 +26°C° 0 mm 1 mps 752 mmHg 87%
06:00 +27°C° 0 mm 1 mps 752 mmHg 83%
07:00 +28°C° 0 mm 1 mps 753 mmHg 79%
08:00 +29°C° 0 mm 1 mps 753 mmHg 74%
09:00 +31°C° 0.1 mm 1 mps 753 mmHg 67%
10:00 +32°C° 0.1 mm 2 mps 753 mmHg 61%
11:00 +35°C° 0.1 mm 2 mps 753 mmHg 54%
12:00 +36°C° 0 mm 2 mps 752 mmHg 52%
13:00 +36°C° 0 mm 2 mps 751 mmHg 50%
14:00 +37°C° 0 mm 2 mps 750 mmHg 49%
15:00 +36°C° 0 mm 2 mps 750 mmHg 52%
16:00 +35°C° 0 mm 2 mps 750 mmHg 56%
17:00 +35°C° 0 mm 2 mps 750 mmHg 59%
18:00 +34°C° 0 mm 2 mps 750 mmHg 62%
19:00 +31°C° 0 mm 2 mps 751 mmHg 65%
20:00 +30°C° 0 mm 1 mps 751 mmHg 67%
21:00 +30°C° 0 mm 1 mps 752 mmHg 69%
22:00 +29°C° 0 mm 1 mps 752 mmHg 71%
23:00 +29°C° 0 mm 1 mps 752 mmHg 73%

Tomorrow, 19 September, Saturday

Time Temperature Precipitation Wind Pressure Humidity
00:00 +28°C° 0 mm 1 mps 752 mmHg 74%
01:00 +26°C° 0 mm 0 mps 751 mmHg 75%
02:00 +26°C° 0 mm 0 mps 751 mmHg 76%
03:00 +25°C° 0.2 mm 0 mps 751 mmHg 78%
04:00 +25°C° 0.2 mm 0 mps 751 mmHg 81%
05:00 +26°C° 0.2 mm 1 mps 751 mmHg 83%
06:00 +28°C° 0 mm 1 mps 752 mmHg 79%
07:00 +29°C° 0 mm 1 mps 752 mmHg 75%
08:00 +30°C° 0 mm 1 mps 753 mmHg 71%
09:00 +32°C° 0 mm 2 mps 753 mmHg 65%
10:00 +35°C° 0 mm 3 mps 753 mmHg 59%
11:00 +36°C° 0 mm 4 mps 753 mmHg 53%
12:00 +37°C° 0 mm 4 mps 752 mmHg 49%
13:00 +38°C° 0 mm 3 mps 751 mmHg 46%
14:00 +38°C° 0 mm 2 mps 750 mmHg 43%
15:00 +38°C° 0 mm 2 mps 750 mmHg 46%
16:00 +37°C° 0 mm 2 mps 750 mmHg 50%
17:00 +36°C° 0 mm 2 mps 749 mmHg 53%
18:00 +34°C° 0 mm 1 mps 750 mmHg 56%
19:00 +32°C° 0 mm 1 mps 750 mmHg 59%
20:00 +28°C° 0 mm 0 mps 751 mmHg 61%
21:00 +28°C° 0 mm 0 mps 751 mmHg 62%
22:00 +30°C° 0 mm 1 mps 751 mmHg 63%
23:00 +30°C° 0 mm 1 mps 751 mmHg 64%

Day after tomorrow, 20 September, Sunday

Time Temperature Precipitation Wind Pressure Humidity
00:00 +29°C° 0 mm 1 mps 751 mmHg 65%
01:00 +29°C° 0 mm 1 mps 751 mmHg 66%
02:00 +28°C° 0 mm 1 mps 750 mmHg 68%
03:00 +28°C° 0 mm 1 mps 750 mmHg 69%
04:00 +27°C° 0 mm 1 mps 751 mmHg 70%
05:00 +27°C° 0 mm 1 mps 751 mmHg 71%
06:00 +28°C° 0 mm 1 mps 752 mmHg 68%
07:00 +29°C° 0 mm 2 mps 752 mmHg 65%
08:00 +31°C° 0 mm 3 mps 753 mmHg 61%
09:00 +33°C° 0 mm 3 mps 753 mmHg 57%
10:00 +35°C° 0 mm 3 mps 753 mmHg 52%
11:00 +36°C° 0 mm 3 mps 753 mmHg 47%
12:00 +37°C° 0 mm 3 mps 752 mmHg 45%
13:00 +38°C° 0 mm 2 mps 751 mmHg 42%
14:00 +38°C° 0 mm 2 mps 750 mmHg 40%
15:00 +38°C° 0 mm 2 mps 750 mmHg 43%
16:00 +36°C° 0 mm 1 mps 750 mmHg 45%
17:00 +36°C° 0 mm 1 mps 750 mmHg 48%
18:00 +34°C° 0 mm 1 mps 750 mmHg 53%
19:00 +32°C° 0 mm 1 mps 750 mmHg 57%
20:00 +31°C° 0 mm 1 mps 750 mmHg 61%
21:00 +30°C° 0 mm 1 mps 751 mmHg 62%
22:00 +30°C° 0 mm 1 mps 751 mmHg 64%
23:00 +30°C° 0 mm 1 mps 751 mmHg 65%

21 September, Monday

Time Temperature Precipitation Wind Pressure Humidity
00:00 +29°C° 0 mm 1 mps 751 mmHg 67%
01:00 +29°C° 0 mm 2 mps 750 mmHg 69%
02:00 +28°C° 0 mm 2 mps 750 mmHg 70%
03:00 +28°C° 0 mm 2 mps 750 mmHg 73%
04:00 +28°C° 0 mm 2 mps 750 mmHg 77%
05:00 +27°C° 0 mm 2 mps 751 mmHg 80%
06:00 +28°C° 0 mm 3 mps 751 mmHg 76%
07:00 +30°C° 0 mm 4 mps 752 mmHg 72%
08:00 +32°C° 0 mm 4 mps 753 mmHg 69%
09:00 +33°C° 0 mm 4 mps 752 mmHg 63%
10:00 +35°C° 0 mm 5 mps 752 mmHg 58%
11:00 +36°C° 0 mm 5 mps 752 mmHg 53%
12:00 +37°C° 0 mm 4 mps 751 mmHg 50%
13:00 +38°C° 0 mm 4 mps 751 mmHg 48%
14:00 +38°C° 0 mm 3 mps 750 mmHg 45%
15:00 +38°C° 0 mm 3 mps 749 mmHg 48%
16:00 +37°C° 0 mm 3 mps 749 mmHg 51%
17:00 +37°C° 0 mm 2 mps 749 mmHg 53%
18:00 +35°C° 0.1 mm 2 mps 749 mmHg 58%
19:00 +32°C° 0.1 mm 2 mps 749 mmHg 63%
20:00 +30°C° 0.1 mm 3 mps 750 mmHg 68%
21:00 +30°C° 0.1 mm 3 mps 750 mmHg 71%
22:00 +30°C° 0.1 mm 3 mps 750 mmHg 73%
23:00 +29°C° 0.1 mm 3 mps 751 mmHg 75%

22 September, Tuesday

Time Temperature Precipitation Wind Pressure Humidity
00:00 +29°C° 0 mm 3 mps 751 mmHg 77%
01:00 +29°C° 0 mm 3 mps 750 mmHg 79%
02:00 +28°C° 0 mm 3 mps 750 mmHg 80%
03:00 +28°C° 0 mm 3 mps 750 mmHg 81%
04:00 +28°C° 0 mm 3 mps 751 mmHg 83%
05:00 +27°C° 0 mm 2 mps 751 mmHg 84%
06:00 +28°C° 0 mm 3 mps 752 mmHg 79%
07:00 +29°C° 0 mm 4 mps 752 mmHg 75%
08:00 +30°C° 0 mm 4 mps 753 mmHg 70%
09:00 +33°C° 0 mm 5 mps 753 mmHg 65%
10:00 +34°C° 0 mm 5 mps 753 mmHg 59%
11:00 +36°C° 0 mm 5 mps 753 mmHg 54%
12:00 +36°C° 0.2 mm 4 mps 752 mmHg 53%
13:00 +37°C° 0.2 mm 4 mps 751 mmHg 51%
14:00 +37°C° 0.2 mm 4 mps 750 mmHg 50%
15:00 +37°C° 0 mm 3 mps 750 mmHg 52%
16:00 +36°C° 0 mm 3 mps 750 mmHg 54%
17:00 +36°C° 0 mm 2 mps 750 mmHg 56%
18:00 +34°C° 0.3 mm 2 mps 750 mmHg 63%
19:00 +31°C° 0.3 mm 2 mps 750 mmHg 69%
20:00 +29°C° 0.3 mm 2 mps 750 mmHg 75%
21:00 +29°C° 0.3 mm 2 mps 750 mmHg 77%
22:00 +29°C° 0.3 mm 2 mps 751 mmHg 79%
23:00 +28°C° 0.3 mm 2 mps 751 mmHg 81%

23 September, Wednesday

Time Temperature Precipitation Wind Pressure Humidity
00:00 +28°C° 0 mm 2 mps 751 mmHg 82%
01:00 +28°C° 0 mm 2 mps 750 mmHg 82%
02:00 +28°C° 0 mm 2 mps 750 mmHg 82%
03:00 +27°C° 0 mm 1 mps 750 mmHg 83%
04:00 +27°C° 0 mm 1 mps 751 mmHg 84%
05:00 +27°C° 0 mm 1 mps 751 mmHg 84%
06:00 +28°C° 0 mm 2 mps 752 mmHg 80%
07:00 +29°C° 0 mm 3 mps 752 mmHg 76%
08:00 +30°C° 0 mm 4 mps 753 mmHg 72%
09:00 +33°C° 0 mm 4 mps 753 mmHg 66%
10:00 +34°C° 0 mm 4 mps 753 mmHg 60%
11:00 +36°C° 0 mm 4 mps 753 mmHg 54%
12:00 +37°C° 0 mm 4 mps 752 mmHg 50%
13:00 +38°C° 0 mm 4 mps 751 mmHg 46%
14:00 +40°C° 0 mm 4 mps 750 mmHg 43%
15:00 +38°C° 0 mm 3 mps 750 mmHg 45%
16:00 +37°C° 0 mm 3 mps 750 mmHg 47%
17:00 +37°C° 0 mm 2 mps 750 mmHg 49%
18:00 +35°C° 0 mm 2 mps 750 mmHg 50%
19:00 +34°C° 0 mm 2 mps 751 mmHg 52%
20:00 +31°C° 0 mm 2 mps 751 mmHg 53%
21:00 +30°C° 0 mm 2 mps 751 mmHg 54%
22:00 +30°C° 0 mm 2 mps 751 mmHg 55%
23:00 +29°C° 0 mm 2 mps 752 mmHg 55%
Show more